Location: Poughquag
(41.6090°N, 73.6820°W)
Time: 17:28:06
(UTC-05:00)

ARIANE 6 FM1 Upper Stage - Visible Passes

Search period start: 08 December 2025 00:00
Search period end: 18 December 2025 00:00
Orbit: 522 x 611 km, 62.0° (Epoch: 08 December)

Date Brightness Start Highest point End Pass type
(mag) Time Alt. Az. Time Alt. Az. Time Alt. Az.
10 Dec 6.1 06:19:58 10° SSE 06:22:26 16° ESE 06:24:52 10° ENE visible
11 Dec 5.4 06:19:28 10° S 06:22:43 23° ESE 06:25:56 10° ENE visible
12 Dec 4.5 06:19:20 10° S 06:23:03 35° ESE 06:26:43 10° NE visible
13 Dec 3.4 06:19:26 10° SSW 06:23:24 55° ESE 06:27:18 10° NE visible
14 Dec 2.6 06:19:43 10° SW 06:23:47 85° SE 06:27:47 10° NE visible
15 Dec 5.8 04:43:50 10° SE 04:45:38 13° ESE 04:47:26 10° E visible
15 Dec 2.5 06:20:10 10° SW 06:24:11 63° NW 06:28:09 10° NNE visible
16 Dec 5.2 04:42:56 10° SSE 04:45:52 19° ESE 04:48:46 10° ENE visible
16 Dec 2.9 06:20:46 10° WSW 06:24:38 42° NW 06:28:26 10° NNE visible
17 Dec 4.5 04:44:06 19° SSE 04:46:08 29° ESE 04:49:36 10° ENE visible
17 Dec 3.4 06:21:32 10° WSW 06:25:06 29° NW 06:28:38 10° NNE visible
